Regional Weather Roundup
Issued by NWS Charleston, SC

Current Version | Previous Version | Graphics & Text | Print | Product List | Glossary On
Versions: 1 2 3 4 5 6 7 8 9 10 11 12 13 14 15 16 17 18 19 20 21 22 23 24 25 26 27 28 29 30 31 32 33 34 35 36 37 38 39 40 41 42 43 44 45 46 47 48 49 50
000
ASUS42 KCHS 310710
RWRCHS
REGIONAL WEATHER ROUNDUP
NATIONAL WEATHER SERVICE CHARLESTON SC
300 AM EDT SUN AUG 31 2014

NOTE: "FAIR" INDICATES FEW OR NO CLOUDS BELOW 12,000 FEET WITH NO
SIGNIFICANT WEATHER AND/OR OBSTRUCTIONS TO VISIBILITY.

NOT ALL STATIONS ARE QUALITY CONTROLLED BY THE NATIONAL
WEATHER SERVICE. USE DATA WITH CAUTION...ESPECIALLY
DEWPOINT OBSERVATIONS.

SCZ027-030-031-034>040-042>050-310800-
...SOUTH CAROLINA...

CITY           SKY/WX    TMP DP  RH WIND       PRES   REMARKS
N CHARLESTON   PTCLDY    76  73  91 CALM      30.14F
WATERFRONT PRK   N/A     82 N/A N/A S6          N/A
FORT JOHNSON   NOT AVBL
MOUNT PLEASANT FAIR      75  75 100 CALM      30.14F
JOHNS ISLAND   MOSUNNY   77  75  94 CALM      30.14F
PINOPOLIS        N/A     79  73  83 CALM      30.06F
MONCKS CORNER    N/A     73  73 100 CALM      30.14F
SUMMERVILLE    FAIR      72  72 100 CALM      30.15F
BEAUFORT MCAS  PTCLDY    78  75  90 CALM      30.13F
BEAUFORT ARPT  FAIR      77  77 100 CALM      30.12F
HILTON HEAD IS MOCLDY    79  77  94 CALM      30.14S
GEORGETOWN     NOT AVBL
WALTERBORO     PTSUNNY   73 N/A N/A CALM      30.14F
ORANGEBURG     MOCLDY    74  71  91 CALM      30.14F
BARNWELL       FAIR      75  73  94 SE3       30.14F
AIKEN          FAIR      75  75 100 S3        30.18S
MANNING        FAIR      72 N/A N/A CALM      30.15S
KINGSTREE      NOT AVBL
COLUMBIA       MOCLDY    77  71  82 CALM      30.14S
SUMTER         MOCLDY    73  73  98 E2        30.14S
FLORENCE       MOCLDY    73  70  90 E3        30.15F
MYRTLE BEACH   MOCLDY    81  73  78 SE7       30.16S
N MYRTLE BEACH CLEAR     81  75  82 S5        30.15F

$$

GAZ063-065-086>088-099>101-113>116-118-119-134-136>141-150-310800-
...GEORGIA...

CITY           SKY/WX    TMP DP  RH WIND       PRES   REMARKS
SAVANNAH ARPT  PTCLDY    79  74  84 S3        30.13F
HUNTER AAF     PTCLDY    77  76  98 CALM      30.11F
FORT STEWART   PTCLDY    75  73  92 CALM      30.12F
STATESBORO     NOT AVBL
SYLVANIA       MOSUNNY   73  73 100 CALM      30.14S
CLAXTON        NOT AVBL
THOMSON        CLOUDY    80  77  90 S5        30.18S
AUGUSTA-BUSH   PTCLDY    73  71  93 SE5       30.12F
AUGUSTA-DANIEL PTCLDY    77  73  87 SE5       30.14F
SWAINSBORO     CLOUDY    81  81 100 S3        30.15S HX  91
VIDALIA          N/A     79  75  89 CALM      30.14F
ALMA           CLOUDY    75  73  93 CALM      30.14R
WAYCROSS       MOCLDY    80  77  92 S3        30.14R
JESUP            N/A     77  75  94 CALM      30.14R
BRUNSWICK      PTCLDY    77  73  88 CALM      30.13F
SAINT SIMONS   CLEAR     81  76  84 S5        30.13F

$$

SCZ027-028-034-036>038-045-046-048>050-GAZ119-141-310800-
...LAKE AND SUPPLEMENTAL COASTAL OBSERVATIONS...

STATION/POSITION TIME  TEMP    WIND        PRES    WAVE   SWELL
                       AIR SEA DIR/SP/G            HT/PER HT/PER/DIR
                 (UTC) (F)     (DEG/KT/KT) (MB)    (FT/S) (FT/S/D)
UPR LAKE MARION  NOT AVBL
WINYAH BAY       0600   82     140/  5     1021.0S
LAKE MURRAY      0600   79     150/  8/ 11 1020.0S
ACE BASIN NERRS  0600   77        CALM     1021.0S
FORT PULASKI     0700   81     160/  3/  5 1020.4F
SAPELO ISLAND    0600   81     190/  4     1021.0S

$$

ANZ835-935-AMZ111-154-330-350-352-354-374-450-454-472-310800-
...C-MAN AND BUOY OBSERVATIONS...

STATION/POSITION TIME  TEMP    WIND        PRES    WAVE   SWELL
                       AIR SEA DIR/SP/G            HT/PER HT/PER/DIR
                 (UTC) (F)     (DEG/KT/KT) (MB)    (FT/S) (FT/S/D)
FOLLY BEACH CMAN 0600   82     160/  7/  8 1021.3R
BUOY 41004       0700   83 83  180/ 10/ 12 1020.0S   3/ 8   2/ 8
BUOY 41008       0700   83 84  200/ 10/ 12 1020.2F   2/ 8   2/100/ 8
5E ST. MARYS GA  0700      84                N/A     2/ 9
FRYING PAN BUOY  NOT AVBL
BUOY 41025       0700   80     180/ 12/ 14 1022.2S   3/11   3/120/11
CAPE LOOKOUT NC  0600   80     190/  5/  6 1022.1F
BUOY 41002       0603   81 83  140/  8/ 10 1022.8F   3/10   3/140/10
BUOY 41010       0700   81 85  120/  4/ 10 1020.8F   4/ 9   3/110/ 9
BUOY 41012       NOT AVBL
ST AUGUSTINE FL  0700   78     240/  3/  4 1021.0F
CAPERS NEARSHORE 0600   81     120/  6/ 10   N/A
FRIPP NEARSHORE  NOT AVBL


$$


USA.gov is the U.S. government's official web portal to all federal, state and local government web resources and services.